Lid_Strength_Index
1 1 1 1 0 0 0 0 0 -0 -0 0 0 0 0 0 -0 0 1 2 2 2 3 4 4 3 5 6 6 7 6 7 6 6 5 7 6 5 4 4 5 5 5
2 2 2 1 1 1 2 1 -0 0 -0 0 0 0 0 0 1 2 2 3 4 4 4 5 5 6 7 7 8 8 8 7 8 8 8 8 8 6 6 6 6 6 6
3 3 3 3 3 2 2 2 0 0 0 0 0 1 1 0 0 2 2 3 3 4 4 4 5 7 8 8 8 7 8 8 8 9 8 7 8 7 7 7 7 7 8
4 3 3 3 2 2 2 1 0 0 0 0 0 1 0 0 1 2 3 4 4 4 5 6 6 7 8 8 9 8 7 9 8 8 9 9 9 7 8 10 10 11 11
3 3 3 2 3 2 1 1 0 1 0 0 1 1 1 2 3 4 5 6 6 7 7 7 7 8 8 9 8 9 9 10 11 11 12 10 10 10 11 11 13 12 12
3 3 2 2 2 2 2 2 2 2 2 1 2 3 5 6 10 9 7 7 8 9 11 11 12 12 12 12 12 11 11 12 12 12 11 12 12 12 12 12 13 14 14
3 3 2 2 3 2 2 3 3 3 5 6 7 7 8 9 11 11 11 8 9 11 12 13 13 13 12 14 13 13 13 13 14 13 13 13 13 12 13 13 13 14 13
2 2 2 2 4 6 6 6 8 8 9 9 9 9 9 10 12 12 12 12 13 13 13 13 14 14 14 14 14 15 14 14 14 14 13 12 12 12 12 13 13 13 12
3 4 5 5 7 7 8 9 10 10 10 10 9 10 11 13 13 13 13 14 15 15 15 14 14 14 14 14 15 15 15 15 14 15 15 15 15 15 14 13 14 14 14
6 6 6 6 7 9 10 10 10 10 11 11 12 12 13 13 13 13 13 14 16 16 16 16 15 15 15 15 15 15 16 15 15 16 15 15 15 15 15 14 14 15 15
7 7 8 8 10 10 10 10 12 12 13 15 15 15 14 13 13 13 14 15 16 17 17 17 16 15 15 15 15 15 16 16 17 17 17 16 16 16 16 15 15 15 15
8 9 10 10 10 10 10 11 12 13 14 15 16 16 16 15 15 15 15 15 15 16 17 16 15 15 15 16 16 16 17 17 16 17 18 18 18 17 17 16 15 15 14
10 11 11 11 11 10 11 12 13 13 14 15 16 17 17 16 16 16 16 16 16 16 16 16 16 15 16 17 17 18 18 17 18 18 19 18 18 17 17 16 16 15 15
11 11 11 13 13 13 13 13 13 14 14 15 16 17 18 18 18 17 16 15 16 16 16 16 16 16 17 17 17 17 17 17 19 19 19 18 18 18 18 17 17 16 16
12 13 14 14 15 16 15 15 15 14 14 15 16 17 17 17 16 16 16 15 15 16 16 16 16 16 17 17 18 18 18 18 19 19 19 19 19 19 18 17 17 17 17
15 15 15 15 16 16 16 17 15 15 15 15 15 15 16 16 16 16 15 15 16 16 16 17 18 18 19 19 19 19 18 19 19 19 19 19 19 19 19 18 17 17 17
16 16 16 16 16 17 17 17 18 17 15 15 15 16 16 16 15 15 15 16 16 17 18 18 18 19 19 19 19 19 19 19 19 20 20 19 20 19 19 18 17 16 16
16 16 16 17 17 17 17 16 16 16 16 16 15 15 15 15 16 16 17 17 18 18 18 19 19 19 19 19 19 19 20 20 20 20 19 19 19 18 18 17 16 16 16
17 18 18 18 18 17 16 16 15 15 16 17 17 18 17 18 18 19 19 19 19 19 19 19 19 19 19 20 20 20 20 20 20 20 19 19 18 18 18 17 17 17 17
19 19 18 18 17 17 17 17 17 17 18 19 19 19 19 19 20 20 20 20 20 20 20 21 20 20 21 21 20 20 20 19 19 19 18 18 17 17 18 17 17 16 16
18 18 17 17 18 18 18 18 19 19 20 21 21 22 22 20 21 21 22 22 22 22 22 22 22 22 21 21 21 20 20 20 19 19 19 18 18 18 17 16 16 15 15
18 18 19 19 20 20 20 20 20 20 21 21 22 23 23 22 22 22 23 24 23 23 23 23 22 22 21 21 21 20 20 20 20 19 19 19 18 17 16 15 15 14 14
19 20 20 21 21 22 22 21 22 22 23 23 23 23 23 24 24 24 24 24 24 23 23 23 23 22 21 21 20 20 21 20 19 19 19 18 17 16 15 15 14 13 13
21 21 22 23 23 23 24 24 24 25 25 25 24 25 25 25 25 25 25 24 24 23 23 23 22 22 22 22 20 20 19 18 18 17 17 16 16 15 14 14 13 13 13
23 24 24 24 25 25 25 26 26 26 26 26 26 26 25 25 24 24 24 24 24 23 23 23 22 22 22 22 22 21 19 19 18 17 16 16 16 15 15 14 14 14 14
24 25 25 25 26 26 26 27 27 27 27 27 26 26 26 26 25 24 24 24 24 24 23 22 22 23 22 21 19 18 19 19 18 18 17 16 16 15 15 15 14 14 14